This demonstration page uses our WeatherBlox Daily Observations layout. Learn more.

Left ArrowRight Arrow

39.51506, -84.39828

Hourly Observations for March 3, 2021

Temp ( °F °C ) Dew Point ( °F °C ) Humidity (%) Winds ( mph kmh ) Pressure ( in mb ) Visibility ( mi km ) Precip ( " mm )
12:15 am 00:15 Clear 25 -3.7 22 -5.3 89 89 Calm 30.14 1020 10 16.0934 0 0
12:35 am 00:35 Clear 26 -3.5 23 -5.2 88 88 Calm 30.13 1020 10 16.0934 0 0
12:55 am 00:55 Clear 24 -4.3 21 -5.9 89 89 Calm 30.13 1020 10 16.0934 0 0
1:15 am 01:15 Clear 25 -3.9 22 -5.3 90 90 Calm 30.13 1020 10 16.0934 0 0
1:35 am 01:35 Clear 24 -4.7 21 -6 91 91 Calm 30.14 1021 10 16.0934 0 0
1:55 am 01:55 Clear 24 -4.2 22 -5.6 90 90 Calm 30.14 1021 10 16.0934 0 0
2:15 am 02:15 Clear 24 -4.3 22 -5.7 90 90 Calm 30.15 1021 10 16.0934 0 0
2:35 am 02:35 Clear 25 -4.1 22 -5.7 89 89 Calm 30.14 1021 10 16.0934 0 0
2:55 am 02:55 Clear 24 -4.5 22 -5.7 91 91 Calm 30.13 1020 10 16.0934 0 0
3:15 am 03:15 Clear 23 -4.9 21 -6 92 92 Calm 30.12 1020 10 16.0934 0 0
3:35 am 03:35 Clear 24 -4.7 22 -5.4 95 95 Calm 30.12 1020 10 16.0934 0 0
3:55 am 03:55 Clear 23 -4.9 22 -5.7 94 94 Calm 30.11 1020 10 16.0934 0 0
4:15 am 04:15 Clear 23 -4.9 22 -5.5 96 96 Calm 30.11 1020 10 16.0934 0 0
4:35 am 04:35 Clear 23 -4.9 22 -5.5 96 96 Calm 30.11 1020 10 16.0934 0 0
4:55 am 04:55 Clear 23 -5 22 -5.5 96 96 Calm 30.11 1020 10 16.0934 0 0
5:15 am 05:15 Clear 23 -5 22 -5.6 96 96 Calm 30.11 1020 10 16.0934 0 0
5:35 am 05:35 Clear 23 -5 22 -5.7 95 95 Calm 30.11 1020 10 16.0934 0 0
5:55 am 05:55 Clear 23 -5.1 22 -5.8 95 95 Calm 30.12 1020 10 16.0934 0 0
6:15 am 06:15 Clear 23 -5 22 -5.7 95 95 Calm 30.12 1020 10 16.0934 0 0
6:35 am 06:35 Clear 23 -4.8 22 -5.3 96 96 NW 3 6 30.12 1020 10 16.0934 0 0
6:55 am 06:55 Clear 25 -4 24 -4.7 95 95 NW 3 6 30.12 1020 10 16.0934 0 0
7:15 am 07:15 Sunny 24 -4.3 23 -4.8 96 96 NW 3 6 30.12 1020 10 16.0934 0 0
7:35 am 07:35 Sunny 24 -4.3 23 -4.8 96 96 NW 3 6 30.12 1020 10 16.0934 0 0
7:55 am 07:55 Sunny 27 -2.7 26 -3.1 97 97 WNW 6 9 30.12 1020 10 16.0934 0 0
8:15 am 08:15 Sunny 29 -1.6 27 -3 90 90 SW 6 9 30.12 1020 10 16.0934 0 0
8:35 am 08:35 Sunny 31 -0.6 26 -3.3 82 82 SW 5 7 30.12 1020 10 16.0934 0 0
8:55 am 08:55 Sunny 33 0.8 26 -3.3 74 74 SSW 6 9 30.11 1020 10 16.0934 0 0
9:15 am 09:15 Sunny 36 2.1 25 -3.9 65 65 SSW 8 13 30.1 1019 10 16.0934 0 0
9:35 am 09:35 Sunny 38 3.3 25 -3.9 60 60 SSW 9 15 30.1 1019 10 16.0934 0 0
9:55 am 09:55 Sunny 40 4.5 25 -3.8 55 55 SSW 9 15 30.08 1019 10 16.0934 0 0
10:15 am 10:15 Sunny 43 5.9 25 -3.8 50 50 SW 10 17 30.08 1019 10 16.0934 0 0
10:35 am 10:35 Sunny 44 6.8 26 -3.2 49 49 SSW 12 19 30.07 1018 10 16.0934 0 0
10:55 am 10:55 Sunny 46 7.7 27 -2.6 48 48 SSW 10 17 30.06 1018 10 16.0934 0 0
11:15 am 11:15 Sunny 48 8.7 28 -2.1 47 47 SW 12 19 30.05 1018 10 16.0934 0 0
11:35 am 11:35 Sunny 49 9.2 28 -2.2 45 45 SSW 12 19 30.04 1017 10 16.0934 0 0
11:55 am 11:55 Sunny 50 10.1 29 -1.5 45 45 SW 10 17 30.04 1017 10 16.0934 0 0
12:15 pm 12:15 Sunny 52 10.9 29 -1.4 43 43 SSW 9 15 30.03 1017 10 16.0934 0 0
12:35 pm 12:35 Sunny 53 11.9 30 -0.9 41 41 SW 12 19 30.02 1017 10 16.0934 0 0
12:55 pm 12:55 Sunny 55 12.5 31 -0.5 41 41 S 13 20 30 1016 10 16.0934 0 0
1:15 pm 13:15 Sunny 57 13.7 33 0.3 40 40 S 14 22 29.99 1016 10 16.0934 0 0
1:35 pm 13:35 Sunny 58 14.2 32 0.1 38 38 S 13 20 29.98 1015 10 16.0934 0 0
1:55 pm 13:55 Sunny 59 14.9 32 0 36 36 SSW 15 24 29.97 1015 10 16.0934 0 0
2:15 pm 14:15 Sunny 60 15.6 32 0.2 35 35 S 15 24 29.97 1015 10 16.0934 0 0
2:35 pm 14:35 Sunny 61 16.3 32 0 33 33 SSW 16 26 29.95 1014 10 16.0934 0 0
2:55 pm 14:55 Sunny 62 16.7 32 -0.1 32 32 SSW 16 26 29.94 1014 10 16.0934 0 0
3:15 pm 15:15 Sunny 62 16.9 32 -0.1 32 32 SSW 13 20 29.94 1014 10 16.0934 0 0
3:35 pm 15:35 Sunny 63 17.4 29 -1.7 27 27 W 18 30 29.94 1014 10 16.0934 0 0
3:55 pm 15:55 Sunny 64 17.5 30 -1.2 28 28 WSW 16 26 29.94 1014 10 16.0934 0 0
4:15 pm 16:15 Sunny 63 17.1 31 -0.7 30 30 WSW 16 26 29.94 1014 10 16.0934 0 0
4:35 pm 16:35 Sunny 62 16.9 32 -0.1 32 32 W 13 20 29.95 1014 10 16.0934 0 0
4:55 pm 16:55 Sunny 62 16.5 34 0.9 35 35 W 13 20 29.95 1014 10 16.0934 0 0
5:15 pm 17:15 Sunny 61 16 33 0.5 35 35 W 15 24 29.96 1015 10 16.0934 0 0
5:35 pm 17:35 Sunny 60 15.5 34 1.3 38 38 W 12 19 29.97 1015 10 16.0934 0 0
5:55 pm 17:55 Sunny 59 14.8 35 1.6 41 41 WNW 9 15 29.98 1015 10 16.0934 0 0
6:15 pm 18:15 Sunny 57 14.1 34 0.9 41 41 WNW 12 19 29.99 1016 10 16.0934 0 0
6:35 pm 18:35 Clear 55 13 34 1.1 45 45 WNW 7 11 29.99 1016 10 16.0934 0 0
6:55 pm 18:55 Clear 54 12.1 34 1.3 48 48 WNW 7 11 30 1016 10 16.0934 0 0
7:15 pm 19:15 Clear 52 11.2 35 1.4 51 51 WNW 8 13 30.02 1016 10 16.0934 0 0
7:35 pm 19:35 Clear 52 11.3 35 1.6 52 52 NW 8 13 30.03 1017 10 16.0934 0 0
7:55 pm 19:55 Clear 51 10.6 35 1.8 55 55 NW 8 13 30.03 1017 10 16.0934 0 0
8:15 pm 20:15 Clear 51 10.4 35 1.9 56 56 NW 7 11 30.04 1017 10 16.0934 0 0
8:35 pm 20:35 Clear 49 9.4 35 1.8 59 59 WNW 7 11 30.04 1017 10 16.0934 0 0
8:55 pm 20:55 Clear 47 8.5 36 2 64 64 NW 8 13 30.04 1017 10 16.0934 0 0
9:15 pm 21:15 Clear 47 8.6 36 2.1 64 64 WNW 7 11 30.04 1017 10 16.0934 0 0
9:35 pm 21:35 Clear 47 8.5 36 2.4 66 66 WNW 9 15 30.05 1018 10 16.0934 0 0
9:55 pm 21:55 Clear 47 8.1 36 2.3 67 67 WNW 8 13 30.05 1018 10 16.0934 0 0
10:15 pm 22:15 Clear 47 8.4 37 2.6 67 67 WNW 9 15 30.06 1018 10 16.0934 0 0
10:35 pm 22:35 Clear 47 8.3 37 2.6 68 68 WNW 9 15 30.06 1018 10 16.0934 0 0
10:55 pm 22:55 Clear 46 8 37 2.6 69 69 WNW 9 15 30.07 1018 10 16.0934 0 0
11:15 pm 23:15 Clear 48 9.1 37 2.5 64 64 NW 10 17 30.08 1019 10 16.0934 0 0
11:35 pm 23:35 Clear 47 8.5 35 1.8 63 63 N 9 15 30.08 1019 10 16.0934 0 0
11:55 pm 23:55 Clear 46 7.5 35 1.4 66 66 N 8 13 30.09 1019 10 16.0934 0 0

Powered by AerisWeather